DELTA 1 DEB, 29186

Orbit data source: Space-Track

DELTA 1 DEB, 29186 is space debris in LEO originally from a launch on Thu, 11 Jan 1968 UTC launched from the Air Force Western Test Range (AFWTR). Debris objects in space refer to the collection of defunct objects orbiting the Earth. Examples of debris include non-operational satellites, rocket bodies, and fragments generated from explosions, collisions, or faulty payload assembly.

Loading next visibility...
Identifier
29186, 1968-002K
Orbit
LEO
Country
Flag of USUS
Related business
Manufacturer
Unknown
Mission
Spacecraft
Bus & Motor
Unknown
Mass
Unknown
Launch date (UTC)
1968-01-11 (58 years ago)
Launch vehicle
Unknown
Launch site
Air Force Western Test Range (AFWTR)
Object type
Payload
Rocket body
Debris
Shape & HBR
Unknown shape, 0.1 m
Radar Cross Section
Small (<0.1 m²)

Expand to show TLE details & history
Last TLE update: 1 week ago

TLE from 1 week ago
0 DELTA 1 DEB
1 29186U 68002K   25344.11812823  .00000127  00000-0  60344-3 0  9996
2 29186 105.7964  81.7166 0306414 111.5052   9.1211 12.92966903994050
Epoch: 2025-12-10T02:50Z
TLE epoch observation values (Epoch: 2025-12-10T02:50:06.279Z)
Latitude
55.49278°
Longitude
164.26364°
Altitude
1,066.775 km
Speed
7.434 km/s
True Right ascension
19h 03m 31s
True Declination
55° 20' 19"
Sunlit
Object was in daylight at epoch
Visualization orbit readout
Latitude
Unknown
Longitude
Unknown
Altitude
Unknown
Speed
Unknown
Apparent Right ascension
Unknown
Apparent Declination
Unknown
Sunlit
N/A
Visualization observer readout
Local Sidereal Time
18:32:30
Azimuth
Unknown
Elevation
Unknown
Doppler factor
Unknown
Orbital elements
Apogee altitude
1,522.427 km
Perigee altitude
1,052.653 km
Semi-major axis
7,665.677 km
Eccentricity
0.03064
Inclination
105.7964°
RAAN
81.7166°
Arg. of periapsis
111.5052°
True anomaly
9.69954°
Mean anomaly
9.1211°
Eccentric anomaly
9.40808°
Mean motion
3.23383 °/min
Orbital period
111.32 mins
BSTAR
0.00060344
Loading maneuver chart data...
Computing Atmospheric mass density...
Loading historical data...
Loading historical data...
Loading historical data...
Loading historical data...
Loading historical data...
Loading historical data...
Loading historical data...

Documentation

Showing up to 5 results
|